www.pogodaiklimat.ru

Погода и климат >> Архив погоды >> Малайзия >> Ситаван


ПОГОДА в Ситаване

  • Прогноз погоды в Ситаване
  • Монитор погоды в Ситаване

АРХИВ ПОГОДЫ в Ситаване

Время (UTC), дата Ветер
(напр.,м/с)
 
Видим.   Явления Облачность Т
(С)
Тd
(С)
f
(%)
Тe
(С)
Тes
(С)
Комфортность P
(гПа)
Po
(гПа)
Тmin
(С)
Tmax
(С)
R
(мм)
R24
(мм)
S
(см)
12 14.08 З 1 9000 м мгла 9/3 960 м
[Sc Ac trans Ci sp]
+29.3 +25.5 80 +43 +43 опасность
перегрева
1010.1 1009.2 +33.1
15 14.08 СВ 2 9000 м мгла 9/3 960 м
[Sc Ac trans Ci sp]
+27.3 +25.1 88 +39 +39 очень
душно
1012.8 1011.9
18 14.08 В 1 8000 м мгла 9/3 930 м
[Sc Ac trans Ci sp]
+26.0 +24.4 91 +36 +36 очень
душно
1011.3 1010.4
21 14.08 штиль 0 7000 м мгла 9/3 240 м
[St Ac trans Ci sp]
+25.3 +24.1 93 +35 +35 очень
душно
1010.7 1009.8
00 15.08 С 1 8000 м мгла 9/1 <50 м
[Cb cap Ac trans Ci sp]
+25.2 +24.2 94 +35 +35 очень
душно
1012.0 1011.1 +24.9
03 15.08 СЗ 3 10 км мгла 9/5 500 м
[Cb cap Ac lent Cs]
+31.0 +24.7 69 +44 +48 опасность
перегрева
1013.6 1012.7
06 15.08 СЗ 4 10 км мгла {дождь} 9/5 600 м
[Cu Sc Ac lent Cs]
+29.0 +24.5 77 +41 +46 опасность
перегрева
1012.5 1011.6 0.2
09 15.08 СЗ 2 10 км мгла 9/4 500 м
[Cb cap Ac und Ci sp]
+29.8 +22.9 67 +40 +42 очень
душно
1009.4 1008.5
12 15.08 СЗ 1 10 км мгла 9/3 960 м
[Sc Ac trans Ci sp]
+26.9 +24.2 85 +37 +37 очень
душно
1009.3 1008.4 +31.6
15 15.08 В 2 9000 м мгла 9/4 960 м
[Sc Ac trans Cs]
+25.7 +23.6 88 +35 +35 очень
душно
1012.1 1011.2
18 15.08 штиль 0 8000 м мгла 9/3 960 м
[Sc Ac trans Cs]
+24.5 +23.3 93 +33 +33 очень
душно
1010.5 1009.6
21 15.08 ЮВ 1 7000 м мгла 9/3 180 м
[St Ac trans Cs]
+23.8 +23.1 96 +32 +32 очень
душно
1009.7 1008.8
00 16.08 СВ 1 1000 м дымка 9/5 <50 м
[Sc Ac lent Cs]
+24.1 +23.6 97 +33 +33 очень
душно
1011.4 1010.5 +23.7 0.2
03 16.08 ЮВ 3 12 км мгла 9/3 500 м
[Cb cap Ac trans Ci sp]
+31.2 +24.2 66 +43 +48 опасность
перегрева
1012.2 1011.3
06 16.08 Ю 5 14 км мгла 9/4 500 м
[Cb cap Ac trans Ci sp]
+34.2 +24.2 56 +46 +51 опасность
перегрева
1010.2 1009.3
09 16.08 Ю 4 11 км мгла 9/4 500 м
[Cb cap Ac lent Ci sp]
+32.6 +25.5 66 +47 +49 опасность
перегрева
1008.4 1007.5
12 16.08 ЮВ 2 10 км мгла 9/3 960 м
[Sc Ac lent Ci sp]
+30.2 +24.8 73 +43 +43 опасность
перегрева
1009.6 1008.7 +34.8
15 16.08 В 1 9000 м мгла 9/3 930 м
[Sc Ac lent Ci sp]
+28.4 +25.1 82 +41 +41 опасность
перегрева
1011.6 1010.7
18 16.08 Ю 3 9000 м мгла 9/4 900 м
[Sc Ac trans Cs]
+26.5 +23.7 85 +36 +36 очень
душно
1011.4 1010.5
21 16.08 ЮВ 1 9000 м мгла 9/4 900 м
[Sc Ac lent Cs]
+25.5 +23.7 90 +35 +35 очень
душно
1010.1 1009.2
00 17.08 СВ 2 10 км мгла 9/3 1000 м
[Cu Sc Ac trans Ci fib]
+24.7 +23.0 90 +33 +33 очень
душно
1010.8 1009.9 +24.1
03 17.08 В 4 12 км мгла 8/1 660 м
[Cu hum Ac trans Ci fib]
+32.1 +25.0 66 +46 +51 опасность
перегрева
1011.1 1010.2
06 17.08 В 3 13 км мгла 9/4 660 м
[Cu hum Ac trans Ci sp]
+35.3 +24.9 55 +49 +55 опасность
перегрева
1008.8 1007.9
09 17.08 Ю 4 12 км мгла 9/3 660 м
[Cu med, cong Ac trans Ci sp]
+33.3 +26.3 67 +50 +52 опасность
перегрева
1007.3 1006.4
12 17.08 ЮВ 2 9000 м мгла 9/1 960 м
[Sc Ac trans Ci sp]
+30.0 +26.4 81 +46 +46 опасность
перегрева
1008.7 1007.8 +35.5
15 17.08 ЮВ 1 8000 м мгла 9/3 960 м
[Sc Ac trans Ci sp]
+29.1 +25.0 79 +42 +42 опасность
перегрева
1010.3 1009.4
18 17.08 штиль 0 8000 м мгла 9/3 960 м
[Sc Ac lent Ci sp]
+27.9 +24.7 83 +40 +40 очень
душно
1010.6 1009.7
21 17.08 С 1 8000 м мгла 9/3 960 м
[Sc Ac lent Ci sp]
+25.9 +24.6 93 +37 +37 очень
душно
1010.0 1009.1
00 18.08 С 1 7000 м мгла 9/1 1000 м
[Cu med, cong Ac trans Ci sp]
+25.0 +23.7 93 +34 +35 очень
душно
1011.2 1010.3 +24.7
03 18.08 Ю 2 7000 м мгла 9/1 660 м
[Cu med, cong Ac trans Ci sp]
+31.8 +25.3 69 +46 +54 опасность
перегрева
1012.0 1011.1
06 18.08 Ю 4 7000 м мгла 9/3 700 м
[Cu med, cong Ac trans Ci sp]
+33.2 +25.7 65 +48 +54 опасность
перегрева
1010.1 1009.2
09 18.08 ЮЗ 3 7000 м гроза без осадков 9/3 500 м
[Cb cap Ac trans Ci sp]
+31.9 +24.5 65 +45 +47 опасность
перегрева
1008.3 1007.4
12 18.08 СВ 2 7000 м слаб. ливневой дождь, в посл. час гроза 9/4 500 м
[Cb cap Ac lent Cs]
+24.9 +23.7 93 +34 +34 очень
душно
1010.5 1009.6 +34.0 0.2
15 18.08 З 1 7000 м мгла {дождь} 9/4 900 м
[Sc Ac trans Cs]
+24.3 +23.0 92 +32 +32 очень
душно
1012.0 1011.1
18 18.08 штиль 0 8000 м мгла {гроза, дождь} 9/3 960 м
[Sc Ac trans Ci sp]
+24.2 +23.0 93 +32 +32 очень
душно
1011.7 1010.8 0.0
21 18.08 штиль 0 7000 м мгла 9/3 210 м
[St Ac trans Ci sp]
+23.9 +23.0 95 +32 +32 очень
душно
1011.0 1010.1
00 19.08 штиль 0 7000 м мгла 9/3 <50 м
[Sc Ac trans Ci sp]
+24.0 +23.1 95 +32 +32 очень
душно
1011.6 1010.7 +23.7 0.2
03 19.08 В 3 10 км мгла 9/1 660 м
[Cu hum Ac trans Ci sp]
+30.9 +24.6 69 +44 +50 опасность
перегрева
1011.8 1010.9
06 19.08 Ю 3 12 км мгла 9/4 600 м
[Cu med, cong Ac trans Ci sp]
+33.1 +25.5 64 +48 +54 опасность
перегрева
1009.8 1008.9
09 19.08 Ю 4 11 км мгла 9/3 660 м
[Cu hum Ac trans Ci sp]
+31.8 +24.6 66 +45 +47 опасность
перегрева
1007.8 1006.9
12 19.08 ЮВ 2 8000 м мгла 9/3 960 м
[Sc Ac lent Ci sp]
+29.4 +24.3 74 +41 +41 опасность
перегрева
1008.9 1008.0 +33.3
15 19.08 штиль 0 8000 м мгла 9/3 960 м
[Sc Ac lent Ci sp]
+27.4 +25.1 87 +39 +39 очень
душно
1010.7 1009.8
18 19.08 СВ 1 8000 м мгла 9/4 900 м
[Sc Ac trans Ci sp]
+25.8 +24.4 92 +36 +36 очень
душно
1010.2 1009.3
21 19.08 штиль 0 8000 м мгла 9/3 960 м
[Sc Ac trans Ci sp]
+25.2 +24.2 94 +35 +35 очень
душно
1009.3 1008.4
00 20.08 СВ 1 8000 м мгла 9/3 1000 м
[Sc Ac lent Ci sp]
+24.9 +23.8 94 +34 +34 очень
душно
1010.0 1009.1 +24.0
03 20.08 ЮВ 2 10 км мгла 8/1 660 м
[Cu hum Ac trans Ci fib]
+33.0 +25.0 63 +47 +56 опасность
перегрева
1010.2 1009.3
06 20.08 Ю 4 11 км мгла 9/3 660 м
[Cu hum Ac lent Ci sp]
+34.0 +25.0 59 +47 +53 опасность
перегрева
1008.4 1007.5
09 20.08 Ю 4 8000 м мгла 9/1 700 м
[Cu med, cong Ac trans Ci sp]
+32.2 +25.5 68 +47 +49 опасность
перегрева
1006.3 1005.4
12 20.08 ЮВ 2 8000 м мгла 9/1 960 м
[Sc Ac trans Ci sp]
+29.8 +24.3 72 +42 +42 опасность
перегрева
1007.3 1006.4 +34.6
15 20.08 штиль 0 8000 м мгла 9/3 960 м
[Sc Ac trans Ci sp]
+27.5 +24.8 85 +39 +39 очень
душно
1009.5 1008.6
18 20.08 С 1 8000 м мгла 9/3 960 м
[Sc Ac lent Ci sp]
+26.8 +25.0 90 +39 +39 очень
душно
1009.0 1008.1
21 20.08 С 2 7000 м мгла 9/4 960 м
[Sc Ac lent Ci sp]
+26.2 +24.2 89 +36 +36 очень
душно
1008.5 1007.6
00 21.08 СВ 1 7000 м в посл. час гроза 9/4 500 м
[Cb cap Ac trans Cs]
+25.4 +23.3 88 +34 +34 очень
душно
1010.0 1009.1 +24.9
03 21.08 З 2 7000 м в посл. час дождь 9/3 900 м
[Sc Ac lent Cs]
+27.5 +24.2 82 +38 +45 очень
душно
1012.1 1011.2
06 21.08 З 2 8000 м мгла {дождь} 9/5 600 м
[Cu Sc Ac trans Cs]
+32.2 +24.0 62 +44 +50 опасность
перегрева
1010.3 1009.4 6

 

Местоположение метеостанции Ситаван (Малайзия): широта 4.22 долгота 100.70 высота над уровнем моря 8 м.

В архиве по умолчанию представлена погода в Ситаване за последнюю неделю. Архивные данные за месяц целиком и за предыдущие месяцы, начиная с января 2011 года, Вы можете получить, выбрав интересующий диапазон дат из раскрывающегося списка и нажав кнопку "Ввод!".


*Определитесь, кто Вы:
робот инопланетянин человек

Внимание! Время в таблицах - всемирное. Для получения местного времени необходимо прибавить поправку, которая равна 7 ч.

Смотрите также архив погоды в соседних городах и на ближайших метеорологических станциях:

Погода в Ипохе (Малайзия) (59 км)
Погода на Нагорье Кэмерон (Малайзия) (79 км)
Погода в Пенанге (Малайзия) (130 км)
Погода на Авиабазе Баттерворт (Малайзия) (143 км)
Погода в Куала-Лумпуре (Малайзия) (155 км)
Погода в Куала-Лумпур аэропорту (Малайзия) (200 км)
Погода в Алор Стар (Малайзия) (223 км)
Погода в Белаване (Индонезия) (227 км)
Погода в Медан Полония (Индонезия) (236 км)
Погода в Лангкави (Малайзия) (258 км)

Пояснения к столбцам:

Ветер - указаны скорость ветра в м/с - средняя за 10 мин, порывы в срок и между сроками (в фигурных скобках) и направление, откуда дует ветер: С - северный, СВ - северо-восточный, В - восточный, ЮВ - юго-восточный, Ю - южный, ЮЗ - юго-западный, З - западный, СЗ - северо-западный.
Видимость - горизонтальная дальность видимости в метрах или километрах. При видимости от 1 до 10 км при отсутствии осадков обычно наблюдается дымка, при ухудшении видимости до 1 км и менее - туман. В сухую погоду видимость может ухудшаться дымом, пылью или мглою.
Явления - указаны атмосферные явления, наблюдавшиеся в срок или в последний час перед сроком; фигурными скобками обозначены явления, наблюдавшиеся между сроками (за 1-3 часа до срока); квадратными скобками обозначены град или гололедные отложения с указанием их диаметра в мм.
Облачность - указаны через наклонную черту общая и нижняя облачность в баллах и высота нижней границы облаков в метрах; квадратными скобками обозначены формы облаков: Ci - перистые, Cs - перисто-слоистые, Cc - перисто-кучевые, Ac - высококучевые, As - высокослоистые, Sc - слоисто-кучевые, Ns - слоисто-дождевые, Cu - кучевые, Cb - кучево-дождевые. Подробнее классификацию облаков см. в Атласе облаков (PDF).
T - Температура воздуха - температура, измеренная на высоте 2 м над землей.
Td - Температура точки росы - температура, при понижении до которой содержащийся в воздухе водяной пар достигнет насыщения.
f - Относительная влажность воздуха - влажноcть воздуха, измеренная на высоте 2 м над землей.
Te - Эффективная температура - температура, которую ощущает одетый по сезону человек в тени. Характеристика душности погоды. При расчете учитывается влияние влажности воздуха и скорости ветра на теплоощущения человека.
Tes - Эффективная температура на солнце - температура, которую ощущает человек, с поправкой на солнечный нагрев. Характеристика знойности погоды. Зависит от высоты солнца над горизонтом, облачности и скорости ветра. Ночью, в пасмурную погоду, а также при ветре 12 м/с и более поправка равна нулю.
P - Атмосферное давление - приведенное к уровню моря атмосферное давление.
Po - Атмосферное давление - измеренное на уровне метеостанции атмосферное давление.
Tmin - Минимальная температура - минимум температуры воздуха на высоте 2 м над землей.
Tmax - Максимальная температура - максимум температуры воздуха на высоте 2 м над землей.
R - Количество осадков - Количество выпавших осадков за период времени, мм. При наведении курсора мыши на число - период времени, за который выпало указанное количество осадков.
R24 - Количество осадков - Количество выпавших осадков за 24 часа, мм.
S - Снежный покров - Высота снежного покрова, см. При наведении курсора мыши на число - состояние снежного покрова и степень покрытия местности в баллах.